Location: Stull Observatory
(42.2506°N, 77.7903°W)
Time: 02:20:51
(UTC-04:00)

Daily predictions for brighter satellites

Satellite Brightness Start Highest point End
(mag) Time Altitude Azimuth Time Altitude Azimuth Time Altitude Azimuth
ATLAS 3B R/B 4.5 01:57:19 27° NNE 01:57:19 27° NNE 02:00:30 10° NNE
SL-16 R/B 4.5 03:03:46 18° ENE 03:03:46 18° ENE 03:05:54 10° NE
FALCON 9 R/B 4.4 03:08:16 60° SSE 03:08:16 60° SSE 03:38:02 10° E
CENTAUR R/B 3.5 03:29:41 44° NE 03:29:41 44° NE 03:34:23 10° NE
USA 215 4.1 03:24:39 10° E 03:30:51 47° NNE 03:33:34 31° NNW
Cosmos 1980 Rocket 3.8 03:34:35 30° NNE 03:34:35 30° NNE 03:37:24 10° NNE
ADEOS Rocket 4.1 03:28:21 10° NNE 03:31:53 35° NE 03:31:53 35° NE
CZ-2D R/B 3.7 03:30:15 10° NNE 03:33:14 33° NNE 03:33:14 33° NNE
ARIANE 5 R/B 4.3 03:36:35 10° NNE 03:38:55 28° NNE 03:38:55 28° NNE
SL-16 R/B 3.8 03:45:14 31° NNW 03:45:14 31° NNW 03:48:16 10° NNW
Resurs 1-4 Rocket 3.7 03:38:38 10° NNE 03:41:19 31° NNE 03:41:19 31° NNE
Cosmos 2263 Rocket 3.3 03:44:14 10° N 03:49:29 39° ENE 03:49:51 39° ENE
Cosmos 1709 Rocket 4.4 03:57:47 10° N 04:02:43 58° N 04:02:43 58° N
Lacrosse 4 Rocket 4.4 04:04:34 10° NNE 04:06:56 15° NE 04:09:20 10° E
ADEOS II 4.1 04:09:09 10° NE 04:13:16 23° E 04:16:28 14° SE
Cosmos 1544 Rocket 4.3 04:35:51 10° N 04:40:13 52° E 04:41:13 43° ESE
Cosmos 2322 Rocket 2.4 04:42:37 55° NW 04:42:37 55° NW 04:47:43 10° NNE
Lacrosse 5 2.9 04:44:39 33° SSE 04:44:39 33° SSE 04:47:26 10° SE
MOS 1 Rocket 3.3 04:38:41 10° NNE 04:43:22 75° E 04:43:22 75° E
SL-16 R/B 2.4 04:45:38 55° NW 04:45:38 55° NW 04:50:57 10° NNE
Okean O Rocket 2.3 04:42:30 10° NNE 04:46:51 52° E 04:47:43 44° SE
COSMOS 2428 4.4 04:43:13 11° SSE 04:47:49 29° ESE 04:52:37 10° NE
Cosmos 2184 Rocket 4.0 04:43:24 10° N 04:49:37 79° E 04:55:53 10° S
CZ-4B R/B 3.0 04:56:19 10° NNE 04:59:35 61° ENE 04:59:35 61° ENE
ERS-2 4.5 05:01:36 10° NE 05:04:37 23° E 05:07:36 10° SSE
Genesis I 4.2 05:07:51 35° NNW 05:07:51 35° NNW 05:10:48 10° NNE
Cosmos 1844 Rocket 4.1 05:03:03 10° N 05:08:15 38° ENE 05:13:24 10° SE
USA 215 3.2 05:07:14 10° SE 05:13:43 62° SW 05:20:13 10° NW
Cosmos 1455 Rocket 2.9 05:09:57 10° N 05:14:22 80° W 05:17:02 23° S
Cosmos 2360 Rocket 2.1 05:12:48 41° SW 05:14:50 78° WNW 05:20:31 10° NNE
CZ-2D R/B 3.8 05:11:31 10° NNW 05:14:34 19° NW 05:14:34 19° NW
Cosmos 1812 3.7 05:17:21 34° NW 05:17:21 34° NW 05:19:59 10° N
Cosmos 1980 Rocket 4.1 05:16:20 14° NW 05:16:42 14° NW 05:19:39 10° NNW
CENTAUR R/B 3.6 05:16:52 25° WNW 05:18:56 30° NW 05:25:02 10° NNE
ADEOS Rocket 4.0 05:14:37 10° N 05:18:51 24° WNW 05:18:51 24° WNW
Meteor 1-12 Rocket 4.1 05:13:19 10° NNW 05:18:59 77° W 05:24:40 10° S
IRS-1C Rocket 4.0 05:14:08 10° NNE 05:19:26 87° WNW 05:22:50 23° SSW
Cosmos 1975 Rocket 4.3 05:20:50 25° NW 05:20:50 25° NW 05:23:26 10° NNW
ARIANE 5 R/B 4.4 05:17:21 10° NNW 05:19:16 15° NW 05:19:16 15° NW
PAYLOAD B 4.2 05:17:17 10° NNE 05:22:55 81° WNW 05:26:57 20° SSW
Resurs 1-4 Rocket 4.0 05:20:12 10° NNW 05:22:24 15° NW 05:22:24 15° NW
Cosmos 2154 Rocket 4.1 05:16:53 10° N 05:23:06 76° E 05:29:18 10° SSE
Tiangong 2 1.0 05:25:36 81° NE 05:25:36 81° NE 05:28:40 10° E
Cosmos 1570 Rocket 4.1 05:24:07 16° S 05:28:18 73° ESE 05:33:31 10° NNE
Meteor 1-18 Rocket 4.3 05:26:58 32° SW 05:29:21 54° WNW 05:34:50 10° N
Cosmos 2263 Rocket 3.3 05:28:27 10° NW 05:38:12 - SSW 05:31:15 24° WNW
Cosmos 1340 2.8 05:34:52 45° WSW 05:35:28 51° WNW 05:39:11 10° N
Cosmos 2333 Rocket 3.9 05:31:13 10° SSE 05:36:12 32° ESE 05:41:13 10° NE
Meteor 1-31 Rocket 3.7 05:32:31 10° NNE 05:36:13 47° E 05:39:53 10° S
Cosmos 1536 Rocket 3.6 05:36:48 25° SSW 05:39:15 59° W 05:43:41 10° N
Cosmos 1743 2.7 05:36:10 10° N 05:40:04 82° E 05:43:55 10° S
Cosmos 1666 3.8 05:36:39 10° N 05:40:24 48° E 05:44:10 10° SSE
ISS -3.5 05:40:53 43° SW 05:40:53 43° SW 05:44:00 10° SSE
ATLAS 5 CENTAUR R/B 4.0 05:36:30 10° NNW 05:41:54 35° NE 05:47:43 10° ESE
Cosmos 2181 Rocket 4.4 05:36:51 10° S 05:42:56 66° E 05:49:10 10° NNE
Okean 1 4.0 05:44:04 32° W 05:44:45 34° WNW 05:48:30 10° N
Cosmos 2322 3.9 05:42:22 24° SW 05:45:37 52° WNW 05:51:13 10° NNE
EO 1 Del DPAF 3.7 05:44:26 27° SW 05:45:49 36° W 05:49:26 10° NNW
Meteor 1-13 Rocket 4.2 05:40:20 10° S 05:45:51 88° E 05:51:28 10° N
Lacrosse 4 Rocket 1.3 05:41:55 10° NNW 05:46:05 68° WSW 05:50:18 10° SSE
Okean 1-7 Rocket 4.4 05:42:18 10° S 05:46:43 55° E 05:51:08 10° NNE
CZ-2C R/B 3.9 05:43:45 10° S 05:48:12 47° W 05:52:37 10° NNW
Nadezhda 1 Rocket 4.2 05:45:26 14° SSW 05:50:33 48° WNW 05:56:24 10° N
ADEOS II 2.4 05:48:11 10° N 05:53:11 46° WNW 05:57:25 14° SW
DELTA 2 R/B (1) 4.1 05:49:49 21° SW 05:53:21 50° SSE 05:58:41 10° E
Cosmos 1975 3.6 05:49:51 10° NNW 05:53:24 30° W 05:55:04 22° SW
PSLV R/B 4.1 05:52:15 10° N 05:56:18 39° WNW 05:59:09 18° SW
Cosmos 2341 Rocket 3.9 05:52:49 10° N 05:59:06 77° W 06:05:17 10° S
Cosmos 2333 4.2 05:58:55 10° SSW 06:04:32 78° WNW 06:10:17 10° NNE
Cosmos 1844 3.8 06:01:09 10° NNW 06:06:58 84° ENE 06:12:41 10° SSE
NOAA 6 4.4 06:03:54 10° NNE 06:09:01 68° ESE 06:14:06 10° S
Cosmos 2218 Rocket 4.5 06:03:45 10° N 06:10:09 68° E 06:16:27 10° SSE
Cosmos 1937 Rocket 4.4 06:05:18 10° NNW 06:10:33 54° ENE 06:15:44 10° SE
Cosmos 1606 Rocket 4.5 06:06:49 10° N 06:11:12 55° E 06:15:36 10° SSE
CZ-4B R/B 3.9 06:07:51 10° N 06:12:54 35° WNW 06:17:53 10° SW
Cosmos 2298 Rocket 4.3 06:09:43 10° NNW 06:15:04 73° ENE 06:20:24 10° SSE
Iridium 2 3.9 06:12:28 10° N 06:16:18 76° E 06:20:07 10° S
Meteor PRIRODA 4.4 06:15:35 10° N 06:19:00 34° WNW 06:22:25 10° SW
Okean O Rocket 3.3 06:20:02 10° NNW 06:22:49 16° WNW 06:25:11 11° W
Lacrosse 5 3.6 06:23:59 11° WSW 06:24:33 11° WSW 06:26:05 10° SW
Okean 2 3.5 06:22:14 10° S 06:26:23 84° E 06:30:35 10° N
Meteor 1-23 Rocket 4.3 06:21:01 10° SSW 06:26:50 82° W 06:32:39 10° N
Cosmos 2322 Rocket 4.2 06:26:23 10° NW 06:27:31 11° NW 06:28:38 10° NNW
Cosmos 1980 4.1 06:22:49 10° SSW 06:28:25 70° ESE 06:34:03 10° NNE
Cosmos 1814 Rocket 4.2 06:25:34 10° SSW 06:30:46 76° ESE 06:35:57 10° NNE
SL-16 R/B 4.2 06:29:43 10° NW 06:30:49 10° NW 06:31:54 10° NNW
Okean-O 3.0 06:27:08 10° N 06:31:21 43° WNW 06:35:32 10° SW
COSMOS 2428 3.2 06:26:30 10° SW 06:31:52 42° WNW 06:37:16 10° NNE
Aureole 2 Rocket 3.0 06:29:13 10° S 06:32:56 64° ESE 06:36:23 10° NNE
Cosmos 2285 Rocket 4.1 06:28:12 10° SSW 06:34:38 79° WNW 06:41:07 10° NNE
Radarsat Rocket 4.0 06:28:58 10° NNE 06:35:02 87° ESE 06:40:51 10° SSW
Cosmos 1867 3.7 06:31:07 10° NNW 06:36:38 82° ENE 06:42:03 10° SE
COSMO-SKYMED 1 2.5 06:33:53 10° S 06:38:11 70° WSW 06:42:32 10° NNW
ERS-2 3.4 06:35:15 10° NNW 06:38:15 23° WNW 06:41:14 10° WSW
Cosmos 1238 Rocket 4.0 06:38:31 10° WSW 06:40:10 14° WNW 06:41:47 10° NW
Meteor 2-9 Rocket 4.4 06:35:01 10° NNW 06:40:34 52° W 06:45:55 10° SSW
Meteor 1-15 Rocket 4.3 06:35:55 10° NNW 06:41:49 71° W 06:47:42 10° S
Cosmos 2219 Rocket 2.3 06:37:23 10° SW 06:42:52 58° WNW 06:48:24 10° NNE
CZ-4 R/B 4.3 06:40:02 10° NE 06:43:07 22° E 06:46:10 10° SE
Geosat 4.0 06:40:06 10° SSE 06:45:05 67° WSW 06:50:07 10° NNW
